Showing default

IRIDIUM 152, 43479

Orbit data source: Space-Track

IRIDIUM 152, 43479 is a payload satellite owned by Iridium (US) in LEO that was launched on Tue, 22 May 2018 UTC via an FALCON 9 launch vehicle from the Air Force Western Test Range (AFWTR). Payload-class satellites include a variety of spacecraft equipped with specific instruments for various scientific and technological missions. These include communications satellites like Starlink; space stations such as the ISS; scientific satellites like the Hubble; Earth observation satellites from companies like Planet Labs, Umbra, and HawkEye 360; GPS; miniature CubeSats for education and research; and military/defense satellites.

Loading next visibility...
Identifier
43479, 2018-047D
Orbit
LEO
Country
Flag of USUS
Related business
Manufacturer
OATK SSG Gilbert
Mission
Operational Commercial Communications
Bus & Motor
ELITEBUS, Unknown motor
Mass
860 kg wet, 700 kg dry
Launch date (UTC)
2018-05-22 (7 years ago)
Launch vehicle
FALCON 9
Launch site
Air Force Western Test Range (AFWTR)
Object type
Payload
Rocket body
Debris
Shape & HBR
Trap Box + 2 Pan, 4.7 m
Radar Cross Section
14.423 m², Large (>1 m²)

Expand to show TLE details & history
Last TLE update: 1 day ago

TLE from 1 day ago
0 IRIDIUM 152
1 43479U 18047D   25259.53947002  .00000238  00000-0  77970-4 0  9997
2 43479  86.4016 202.6273 0002255  88.8479 271.2976 14.34219481383267
Epoch: 2025-09-16T12:56Z
TLE epoch observation values (Epoch: 2025-09-16T12:56:50.209Z)
Latitude
0.00005°
Longitude
12.68978°
Altitude
780.676 km
Speed
7.464 km/s
True Right ascension
13h 30m 30s
True Declination
0° 00' 00"
Sunlit
Object was in daylight at epoch
Visualization orbit readout
Latitude
Unknown
Longitude
Unknown
Altitude
Unknown
Speed
Unknown
Apparent Right ascension
Unknown
Apparent Declination
Unknown
Sunlit
N/A
Visualization observer readout
Local Sidereal Time
14:10:34
Azimuth
Unknown
Elevation
Unknown
Doppler factor
Unknown
Orbital elements
Apogee altitude
776.239 km
Perigee altitude
773.013 km
Semi-major axis
7,152.763 km
Eccentricity
0.00023
Inclination
86.4016°
RAAN
202.6273°
Arg. of periapsis
88.8479°
True anomaly
271.27177°
Mean anomaly
271.2976°
Eccentric anomaly
271.28468°
Mean motion
3.58783 °/min
Orbital period
100.34 mins
BSTAR
0.00007797
Loading maneuver chart data...
Computing Atmospheric mass density...
Loading historical data...
Loading historical data...
Loading historical data...
Loading historical data...
Loading historical data...
Loading historical data...
Loading historical data...

Documentation

Showing up to 5 results
|